Погода в Таре

Погода в Таре : погода сейчас, прогноз погоды и архив. Всё, что Вы хотите узнать о погоде в Таре!

Хотите узнать прогноз погоды в Таре? Тогда Вам сюда: Погода в Таре

Поиск расширенной информации на нашем сайте:

Полезная информация: провода для активного сабвуфера

Другие новости

Новости СМИ2

Главная страница сайта

Новости сайта

02.10.2013

Напоминаем, что на нашем новом сайте вы можете получить высокодетализированные прогнозы погоды по пунктам России, СНГ и мира (включающие важные для авиации метеовеличины, такие как направление и скорость ветра, видимость, явления погоды, количество и форма облачности, нижняя и верхняя граница облачности), а также ознакомиться с разнообразными материалами по авиационной метеорологии и подборкой полезных ссылок на эту тему.

Сайт Метеоцентр.Азия посвящён разработке технологий оптимизации авиаметеорологического обслуживания, включая проектирование и перспективное создание нескольких автоматизированных авиаметеорологических систем:
- система выпуска высокодетальных прогностических карт явлений погоды для нижнего воздушного пространства по России и ближнему зарубежью;
- система верификации прогнозов TAF (выпускаемых синоптиками официальных АМСГ РФ и ближнего зарубежья) и AUTOTAF (выпускаемых сайтом Метеоцентр.Азия) - выявление ошибок, онлайн-сопоставление с фактической погодой METAR, автоматическое внесение коррективов в прогнозы при резком отклонении фактической погоды от прогноза, подсчёт оправдываемости прогнозов по элементам и в целом;
- система обработки, анализа и отображения авиаметеорологической информации для применения провайдерами метеорологической информации.

Рекомендуем: планировка таунхаусов

Погода в Таре - сегодня

Время (UTC), дата Ветер
(°,м/с) 
Видим.   Явления Облачность Т
(°С)
Тd
(°С)
f(%) Тe
(°С)
Pmin
(гПа)
dP
(гПа)
Po
(мм)
O2
(г/м3)
Тmin Tmax R s Состояние
почвы
03 25.06.17 310 (СЗ) 20000 м  {туман}  8/8 300 м 
[Sc diur, vesp]
+19.3 +16.1 82 +31  1003.8  1.1  746  277  +13.9         
06 25.06.17 300 (СЗ) 20000 м  {туман}  6/6 600 м 
[Cu med, cong]
+22.3 +14.9 63 +31  1004.4  0.6  747  275           
09 25.06.17 320 (СЗ) 20000 м    4/3 600 м верхняя 
[Cu med, cong|Ci fib]
+24.4 +11.7 45 +28  1005.1  0.7  748  274           
12 25.06.17 310 (СЗ) 20000 м    3/3 600 м средняя 
[Cu hum|Ac lent]
+25.2 +9 36 +25  1005.1  0.1  748  274           
15 25.06.17 270 (З) 20000 м    1/0 верхняя 
[Ci fib]
+21.8 +12.7 56 +27  1005.5  0.3  748  277    +25.6       
18 25.06.17 тихо ()   10 км  местами туман поземный  3/0 верхняя 
[Ci fib]
+13.9 +12.4 91 +18  1006.5  0.7  748  284           
21 25.06.17 тихо ()   10 км  местами туман поземный  3/0 верхняя 
[Ci fib]
+11.6 +10.6 94 +14  1006.1  -0.5  748  287           
00 26.06.17 150 (ЮВ) 20000 м    3/0 верхняя 
[Ci fib]
+15 +14 94 +23  1005.9  0.1  748  283           
03 26.06.17 130 (ЮВ) 20000 м    10/0 верхняя 
[Ci sp]
+22.5 +13.9 58 +29  1004.5  -1.1  747  275  +10.6         
06 26.06.17 150 (ЮВ) 20000 м    9/0 средняя, верхняя 
[Ac trans|Ci sp]
+26.4 +13.3 44 +32  1002.5  -1.9  746  271           
09 26.06.17 200 (Ю) 20000 м  {ливн. осадки}  9/6 600 м кучево-дожд., верхняя 
[Cb cap|Ci fib]
+27.5 +14.5 45 +36  1001.2  -1.2  745  270           
12 26.06.17 250 (З) 4-11{12}  20000 м  {ливн. осадки}  8/5 600 м верхняя 
[Cu med, cong|Ci sp]
+25.8 +11.6 41 +29  1002.2  0.9  745  272           
15 26.06.17 260 (З) 4{11}  20000 м    3/0 верхняя 
[Ci fib]
+18.8 +9.8 56 +20  1005.3  2.9  748  280    +28.3  0.0     
18 26.06.17 260 (З) 10 км    4/0 средняя 
[Ac trans]
+12.8 +8.7 76 +14  1006.4  0.9  748  286           
21 26.06.17 230 (ЮЗ) 10 км    8/0 средняя 
[Ac lent]
+12.9 +8.7 76 +14  1006.2  -0.3  748  286           
00 27.06.17 200 (Ю) 20000 м    8/0 верхняя 
[Ci fib]
+12.8 +10.2 84 +14  1007.1  0.9  749  286           
03 27.06.17 230 (ЮЗ) 20000 м    8/0 средняя, верхняя 
[Ac trans|Ci sp]
+18.3 +10.3 60 +21  1007.7  0.7  749  281  +11.9         
06 27.06.17 230 (ЮЗ) 20000 м    9/8 600 м верхняя 
[Cu med, cong|Ci sp]
+20.8 +7.6 42 +21  1007.2  -0.4  749  279           
09 27.06.17 240 (ЮЗ) 4{10}  20000 м    10/9 600 м верхняя 
[Sc diur, vesp|Ci sp]
+21.5 +7.2 40 +22  1007.3  0.1  749  279           
12 27.06.17 250 (З) 3{10}  20000 м    9/4 600 м кучево-дожд., средняя 
[Cb cap|Ac lent]
+21.1 +8.4 44 +21  1007.9  0.6  750  279           
15 27.06.17 220 (ЮЗ) 20000 м    8/0 средняя 
[Ac trans]
+19.8 +9.6 52 +22  1008.2  0.3  750  280    +22.3       
18 27.06.17 180 (Ю) 10 км    ясно 
+13.9 +9.6 75 +15  1009  0.5  750  286           
21 27.06.17 190 (Ю) 10 км    6/0 средняя, верхняя 
[Ac trans|Cc]
+13.3 +9.7 79 +15  1008.5  -0.4  750  286           
00 28.06.17 170 (Ю) 20000 м    8/0 средняя 
[Ac trans]
+14.4 +10.6 78 +17  1008.5  0.1  750  285           
03 28.06.17 200 (Ю) 20000 м    8/0 средняя 
[Ac trans]
+21.6 +13 58 +27  1007.7  -0.6  749  277  +12.6         
Время (UTC), дата Ветер
(°,м/с) 
Видим.   Явления Облачность Т
(°С)
Тd
(°С)
f(%) Тe
(°С)
Pmin
(гПа)
dP
(гПа)
Po
(мм)
O2
(г/м3)
Тmin Tmax R s Состояние
почвы

Для получения пояснительной информации подведите курсор к названию столбца.

ПОГОДА в Таре - архив

Всё, что Вы хотите узнать о погоде в Таре - удобно и подробно!

Выберите нужную дату (начиная с 1 января 2015* года) и нажмите кнопку "Найти".
Будут отображены архивные сводки погоды по пункту Тара, начиная с указанной даты.


Отображать данные в формате CSV (для использования в таблицах Excel)


Внимание! Наш архив погоды предназначен исключительно для личного некоммерческого использования в познавательных целях. Если Вам необходимы официальные справки о состоянии погоды (для производственных, юридических, коммерческих и т.п. целей), обращайтесь в органы Росгидромета.

*Примечание: данная дата относится к архиву по метеостанциям СССР (Россия, СНГ, Балтия).
Архив по метеостанциям Зарубежной Европы и Азии (кроме Китая) хранится 10 дней, по другим регионам земного шара (Китай, Африка, Америка, Австралия, Океания) - 1 день.

Тара - район местоположения метеостанции


Название, широта, долгота, высота метеостанции:
Тара 56.9°ш. 74.4°д. 73 м над ур. моря [Российская Федерация]

Дополнительная информация

В oтличие oт бoльшинства пoгoдных сайтoв мы публикуем пoдрoбную метеoинфoрмацию в детальнoм прoфессиoнальнoм фoрмате.

Характеристики температуры и влажнoсти вoздуха измеряются на высoте 2 м в тени вдали oт зданий и деревьев.
Скoрoсть ветра измеряется на высoте 10 м (на урoвне рoста челoвека скoрoсть ветра ниже в 1.5-2 раза). Если метеoстанция нахoдится в гoрoде или в лесу, тo скoрoсть ветра занижена на 2-4 м/с пo сравнению с oткрытым местoм. Скoрoсть ветра над акватoриями крупных рек и oзёр, а также на вершинах хoлмoв на 2-5 м/с выше, чем в oбычных услoвиях.
Атмoсфернoе давление в разных тoчках местнoсти мoжет значительнo oтличаться oт давления на метеoстанции, в зависимoсти oт услoвий рельефа (при пoдъёме на 10 м давление пoнижается примернo на 1 мм рт.ст.).